• In Romania
  • List of Countries
  • For 7 days
  • Water Temperature
  • Satellite Maps
  • Weather Map
  • Weather Widgets
  • user-avatar
    Login

    Hourly Weather Polyanskoe

    Today, 24 June, Sunday

    Time Temperature Precipitation Wind Pressure Humidity
    00:00 +20°C° 0 mm 2 mps 740 mmHg 63%
    01:00 +20°C° 0 mm 2 mps 740 mmHg 64%
    02:00 +19°C° 0 mm 2 mps 740 mmHg 66%
    03:00 +19°C° 0 mm 2 mps 740 mmHg 64%
    04:00 +20°C° 0 mm 2 mps 740 mmHg 66%
    05:00 +20°C° 0 mm 3 mps 740 mmHg 67%
    06:00 +21°C° 0 mm 3 mps 740 mmHg 69%
    07:00 +22°C° 0 mm 3 mps 740 mmHg 64%
    08:00 +25°C° 0 mm 3 mps 740 mmHg 60%
    09:00 +28°C° 0 mm 4 mps 740 mmHg 57%
    10:00 +29°C° 0 mm 4 mps 740 mmHg 53%
    11:00 +29°C° 0 mm 4 mps 740 mmHg 49%
    12:00 +30°C° 0 mm 4 mps 740 mmHg 45%
    13:00 +32°C° 0 mm 4 mps 740 mmHg 44%
    14:00 +32°C° 0 mm 4 mps 740 mmHg 43%
    15:00 +33°C° 0 mm 3 mps 740 mmHg 42%
    16:00 +31°C° 0 mm 3 mps 740 mmHg 45%
    17:00 +31°C° 0 mm 3 mps 740 mmHg 49%
    18:00 +30°C° 0 mm 3 mps 740 mmHg 53%
    19:00 +28°C° 0 mm 3 mps 740 mmHg 54%
    20:00 +26°C° 0 mm 3 mps 740 mmHg 56%
    21:00 +25°C° 0 mm 3 mps 740 mmHg 58%
    22:00 +24°C° 0 mm 3 mps 740 mmHg 61%
    23:00 +23°C° 0 mm 2 mps 740 mmHg 65%

    Tomorrow, 25 June, Monday

    Time Temperature Precipitation Wind Pressure Humidity
    00:00 +21°C° 0 mm 2 mps 741 mmHg 69%
    01:00 +21°C° 0 mm 1 mps 741 mmHg 72%
    02:00 +21°C° 0 mm 1 mps 741 mmHg 75%
    03:00 +20°C° 0 mm 1 mps 741 mmHg 78%
    04:00 +21°C° 0 mm 1 mps 741 mmHg 77%
    05:00 +22°C° 0 mm 1 mps 742 mmHg 76%
    06:00 +23°C° 0 mm 1 mps 742 mmHg 75%
    07:00 +24°C° 0 mm 1 mps 742 mmHg 71%
    08:00 +26°C° 0 mm 1 mps 742 mmHg 66%
    09:00 +27°C° 0 mm 1 mps 743 mmHg 62%
    10:00 +28°C° 0 mm 1 mps 743 mmHg 58%
    11:00 +29°C° 0 mm 1 mps 743 mmHg 54%
    12:00 +30°C° 0 mm 1 mps 743 mmHg 50%
    13:00 +31°C° 0.1 mm 1 mps 743 mmHg 49%
    14:00 +31°C° 0.1 mm 2 mps 743 mmHg 48%
    15:00 +31°C° 0.1 mm 2 mps 743 mmHg 47%
    16:00 +31°C° 0.4 mm 2 mps 743 mmHg 52%
    17:00 +30°C° 0.4 mm 2 mps 743 mmHg 57%
    18:00 +29°C° 0.4 mm 3 mps 743 mmHg 63%
    19:00 +27°C° 0.4 mm 3 mps 743 mmHg 70%
    20:00 +25°C° 0.4 mm 3 mps 743 mmHg 78%
    21:00 +22°C° 0.4 mm 3 mps 743 mmHg 85%
    22:00 +22°C° 0.5 mm 3 mps 743 mmHg 87%
    23:00 +21°C° 0.5 mm 3 mps 743 mmHg 90%

    Day after tomorrow, 26 June, Tuesday

    Time Temperature Precipitation Wind Pressure Humidity
    00:00 +20°C° 0.5 mm 3 mps 743 mmHg 92%
    01:00 +20°C° 0.2 mm 3 mps 744 mmHg 92%
    02:00 +20°C° 0.2 mm 3 mps 744 mmHg 93%
    03:00 +19°C° 0.2 mm 3 mps 744 mmHg 93%
    04:00 +20°C° 0 mm 3 mps 744 mmHg 91%
    05:00 +21°C° 0 mm 3 mps 744 mmHg 88%
    06:00 +21°C° 0 mm 2 mps 744 mmHg 86%
    07:00 +24°C° 0 mm 2 mps 744 mmHg 78%
    08:00 +26°C° 0 mm 3 mps 744 mmHg 71%
    09:00 +28°C° 0 mm 3 mps 744 mmHg 63%
    10:00 +29°C° 0 mm 3 mps 744 mmHg 58%
    11:00 +30°C° 0 mm 3 mps 744 mmHg 52%
    12:00 +33°C° 0 mm 3 mps 743 mmHg 46%
    13:00 +33°C° 0 mm 3 mps 743 mmHg 45%
    14:00 +34°C° 0 mm 2 mps 743 mmHg 43%
    15:00 +34°C° 0 mm 2 mps 743 mmHg 41%
    16:00 +34°C° 0 mm 2 mps 743 mmHg 45%
    17:00 +32°C° 0 mm 2 mps 743 mmHg 48%
    18:00 +32°C° 0 mm 2 mps 743 mmHg 52%
    19:00 +30°C° 0 mm 2 mps 743 mmHg 55%
    20:00 +28°C° 0 mm 2 mps 743 mmHg 59%
    21:00 +26°C° 0 mm 2 mps 743 mmHg 62%
    22:00 +25°C° 0 mm 3 mps 743 mmHg 66%
    23:00 +24°C° 0 mm 3 mps 743 mmHg 70%

    27 June, Wednesday

    Time Temperature Precipitation Wind Pressure Humidity
    00:00 +24°C° 0 mm 3 mps 743 mmHg 74%
    01:00 +22°C° 0 mm 3 mps 743 mmHg 78%
    02:00 +21°C° 0 mm 3 mps 743 mmHg 83%
    03:00 +21°C° 0 mm 3 mps 743 mmHg 87%
    04:00 +21°C° 0 mm 3 mps 743 mmHg 85%
    05:00 +22°C° 0 mm 3 mps 743 mmHg 83%
    06:00 +24°C° 0 mm 3 mps 743 mmHg 81%
    07:00 +25°C° 0.5 mm 3 mps 743 mmHg 77%
    08:00 +26°C° 0.5 mm 3 mps 744 mmHg 73%
    09:00 +28°C° 0.5 mm 3 mps 744 mmHg 69%
    10:00 +28°C° 0.8 mm 3 mps 744 mmHg 65%
    11:00 +29°C° 0.8 mm 3 mps 743 mmHg 62%
    12:00 +30°C° 0.8 mm 3 mps 743 mmHg 58%
    13:00 +30°C° 0.7 mm 3 mps 743 mmHg 59%
    14:00 +30°C° 0.7 mm 3 mps 743 mmHg 59%
    15:00 +30°C° 0.7 mm 3 mps 743 mmHg 59%
    16:00 +29°C° 0.6 mm 4 mps 743 mmHg 65%
    17:00 +28°C° 0.6 mm 4 mps 743 mmHg 70%
    18:00 +27°C° 0.6 mm 4 mps 743 mmHg 76%
    19:00 +26°C° 0 mm 4 mps 743 mmHg 79%
    20:00 +25°C° 0 mm 3 mps 743 mmHg 81%
    21:00 +24°C° 0 mm 3 mps 743 mmHg 84%
    22:00 +22°C° 0 mm 3 mps 743 mmHg 86%
    23:00 +22°C° 0 mm 3 mps 743 mmHg 88%

    28 June, Thursday

    Time Temperature Precipitation Wind Pressure Humidity
    00:00 +21°C° 0 mm 3 mps 743 mmHg 90%
    01:00 +21°C° 0.6 mm 3 mps 743 mmHg 91%
    02:00 +20°C° 0.6 mm 2 mps 743 mmHg 92%
    03:00 +20°C° 0.6 mm 2 mps 743 mmHg 93%
    04:00 +20°C° 0 mm 3 mps 743 mmHg 91%
    05:00 +21°C° 0 mm 3 mps 743 mmHg 88%
    06:00 +21°C° 0 mm 4 mps 743 mmHg 86%
    07:00 +23°C° 0 mm 4 mps 743 mmHg 81%
    08:00 +25°C° 0 mm 4 mps 743 mmHg 75%
    09:00 +27°C° 0 mm 4 mps 743 mmHg 69%
    10:00 +28°C° 0 mm 4 mps 743 mmHg 65%
    11:00 +29°C° 0 mm 4 mps 743 mmHg 61%
    12:00 +30°C° 0 mm 4 mps 743 mmHg 57%
    13:00 +30°C° 0 mm 4 mps 743 mmHg 57%
    14:00 +30°C° 0 mm 4 mps 743 mmHg 56%
    15:00 +30°C° 0 mm 4 mps 743 mmHg 56%
    16:00 +30°C° 0.1 mm 4 mps 742 mmHg 60%
    17:00 +29°C° 0.1 mm 3 mps 742 mmHg 64%
    18:00 +28°C° 0.1 mm 3 mps 742 mmHg 68%
    19:00 +27°C° 0.1 mm 3 mps 742 mmHg 71%
    20:00 +25°C° 0.1 mm 3 mps 742 mmHg 75%
    21:00 +24°C° 0.1 mm 3 mps 742 mmHg 78%
    22:00 +22°C° 0 mm 3 mps 742 mmHg 79%
    23:00 +21°C° 0 mm 3 mps 742 mmHg 80%

    29 June, Friday

    Time Temperature Precipitation Wind Pressure Humidity
    00:00 +20°C° 0 mm 3 mps 742 mmHg 81%
    01:00 +19°C° 0 mm 3 mps 742 mmHg 81%
    02:00 +19°C° 0 mm 3 mps 742 mmHg 82%
    03:00 +18°C° 0 mm 3 mps 742 mmHg 82%
    04:00 +19°C° 0 mm 4 mps 742 mmHg 80%
    05:00 +19°C° 0 mm 4 mps 742 mmHg 79%
    06:00 +20°C° 0 mm 4 mps 743 mmHg 78%
    07:00 +21°C° 0 mm 4 mps 743 mmHg 74%
    08:00 +23°C° 0 mm 4 mps 743 mmHg 71%
    09:00 +26°C° 0 mm 4 mps 743 mmHg 67%
    10:00 +27°C° 0 mm 5 mps 743 mmHg 62%
    11:00 +28°C° 0 mm 5 mps 743 mmHg 58%
    12:00 +29°C° 0 mm 5 mps 742 mmHg 54%
    13:00 +29°C° 0 mm 5 mps 742 mmHg 52%
    14:00 +29°C° 0 mm 5 mps 742 mmHg 50%
    15:00 +29°C° 0 mm 5 mps 742 mmHg 48%
    16:00 +29°C° 0 mm 4 mps 742 mmHg 52%
    17:00 +28°C° 0 mm 4 mps 742 mmHg 56%
    18:00 +28°C° 0 mm 3 mps 742 mmHg 61%
    19:00 +26°C° 0 mm 3 mps 742 mmHg 63%
    20:00 +24°C° 0 mm 3 mps 742 mmHg 66%
    21:00 +21°C° 0 mm 3 mps 742 mmHg 69%
    22:00 +21°C° 0 mm 4 mps 742 mmHg 71%
    23:00 +20°C° 0 mm 4 mps 742 mmHg 72%
    Show more